Regional Weather Roundup
Issued by NWS

Home | Current Version | Previous Version | Text Only | Print | Product List | Glossary On
Versions: 1 2 3 4 5 6 7 8 9 10 11 12 13 14 15 16 17 18 19 20 21 22 23 24 25 26 27 28 29 30 31 32 33 34 35 36 37 38 39 40 41 42 43 44 45 46 47 48 49 50
000
ASUS44 KFWD 251603
RWRTX
NORTH TEXAS HOURLY WEATHER ROUNDUP
NATIONAL WEATHER SERVICE FORT WORTH TX
1100 AM CDT FRI JUL 25 2014

NOTE: "FAIR" INDICATES FEW OR NO CLOUDS BELOW 12,000 FEET WITH NO
SIGNIFICANT WEATHER AND/OR OBSTRUCTIONS TO VISIBILITY.

TXZ118-119-251700-
DALLAS/FORT WORTH METROPLEX

CITY           SKY/WX    TMP DP  RH WIND       PRES   REMARKS
DFW AIRPORT    MOSUNNY   91  70  49 S10       30.01S HX  96
DALLAS LOVE    MOSUNNY   89  69  51 SW8       30.02S HX  93
FTW MEACHAM    SUNNY     91  70  49 VRB6      30.01F HX  96
DAL-EXECUTIVE  SUNNY     91  70  49 S6        30.02S HX  96
FTW-ALLIANCE   MOSUNNY   88  70  55 VRB6      30.02S HX  93
FTW-NAS-JRB    MOSUNNY   93  67  42 S12       30.05F HX  96
FTW-SPINKS     SUNNY     91  68  46 S12       30.04S HX  95
ARLINGTON      SUNNY     89  68  49 S8        30.02S HX  93
GRAND PRAIRIE  SUNNY     90  68  48 S7        30.03F HX  93
ADDISON        SUNNY     88  68  51 S7        30.03S HX  91
MESQUITE       SUNNY     88  70  55 S10       30.03S HX  92
LANCASTER      SUNNY     89  67  48 S6        30.03S HX  92
$$

TXZ091>094-102>105-117-120-121-131>134-251700-
NORTH CENTRAL TEXAS

CITY           SKY/WX    TMP DP  RH WIND       PRES   REMARKS
SHRMAN/DENISON SUNNY     87  70  57 S8        30.04S HX  91
GAINESVILLE    SUNNY     87  71  59 S10       30.04S HX  92
BOWIE          SUNNY     86  72  61 S10       30.03S HX  92
BRIDGEPORT     SUNNY     88  67  49 SW6       30.04S HX  91
DECATUR        SUNNY     87  68  54 SW10      30.04S HX  90
DENTON         SUNNY     87  70  56 S14       30.02R HX  92
MCKINNEY       SUNNY     86  71  60 S8        30.03R HX  91
GREENVILLE     SUNNY     86  72  62 S8        30.04R HX  92
ROCKWALL       SUNNY     87  73  62 SW8       30.02S HX  94
TERRELL        SUNNY     89  72  56 S9        30.03F HX  96
WAXAHACHIE     SUNNY     89  67  47 SW9       30.04S HX  91
CLEBURNE       SUNNY     88  73  62 S10       30.05S HX  96
GRANBURY       SUNNY     92  68  45 SW9       30.04S HX  95
$$

TXZ083>090-098>101-113>116-127>130-139>142-154-155-251700-
WESTERN NORTH TEXAS

CITY           SKY/WX    TMP DP  RH WIND       PRES   REMARKS
WICHITA FALLS  SUNNY     90  68  48 SW15G22   29.99F HX  94
WF-KICKAPOO    SUNNY     90  64  42 S9G16     30.02S HX  91
VERNON         SUNNY     92  65  40 SW14      30.00F HX  93
ABILENE        SUNNY     87  66  49 SW12      30.07F
ABILENE-DYESS  MOSUNNY   88  65  47 S12       30.06S
BRECKENRIDGE   SUNNY     90  64  41 SW8G16    30.03F HX  91
GRAHAM         SUNNY     90  65  43 SW12      30.01S HX  92
MINERAL WELLS  SUNNY     90  68  48 VRB7      30.02S HX  94
STEPHENVILLE   SUNNY     88  65  46 SW9       30.08S HX  90
COMANCHE       SUNNY     88  66  48 SW10      30.07S HX  90
BROWNWOOD      SUNNY     86  66  51 SW13      30.07F
COLEMAN        SUNNY     86  65  49 S10       30.08F
BRADY          SUNNY     88  68  51 S8        30.09S HX  91
$$

TXZ143>147-156>162-174-175-251700-
CENTRAL TEXAS

CITY           SKY/WX    TMP DP  RH WIND       PRES   REMARKS
WACO           SUNNY     90  69  50 SW10      30.03S HX  94
WACO-MCGREGOR  PTSUNNY   90  70  51 W9        30.05S HX  95
HILLSBORO      SUNNY     89  70  52 S7        30.03F HX  94
CORSICANA      SUNNY     89  72  56 S13       30.05R HX  96
MEXIA          SUNNY     86  74  67 S8        30.04S HX  93
CAMERON        SUNNY     87  71  58 SW9       30.04F HX  93
TEMPLE         SUNNY     88  70  55 SW8       30.05F HX  92
KILLEEN        MOSUNNY   88  72  58 SW8       30.05F HX  94
KILLEEN-SKYLRK SUNNY     90  70  51 SW9       30.05F HX  95
FORT HOOD      SUNNY     90  70  51 SW12      30.05  HX  95
GATESVILLE     SUNNY     88  70  55 SW9       30.07F HX  92
HAMILTON       SUNNY     88  68  51 SW10G17   30.07F HX  92
LAMPASAS       MOSUNNY   88  73  60 SW7G16    30.07S HX  94
$$

TXZ095>097-106>112-122>126-135>138-148>153-164>167-251700-
EAST TEXAS

CITY           SKY/WX    TMP DP  RH WIND       PRES   REMARKS
PARIS          MOSUNNY   82  72  69 S6        30.05S
SULPHUR SPRNGS SUNNY     85  72  66 SW8       30.06S HX  90
CLARKSVILLE    PTSUNNY   83  75  78 S6        30.06S HX  90
MOUNT PLEASANT SUNNY     83  76  78 S7        30.07R HX  92
GILMER         SUNNY     84  75  74 S7        30.07S HX  92
MINEOLA        SUNNY     86  75  70 SW8       30.05S HX  95
TYLER          SUNNY     86  73  65 S8        30.05S HX  93
LONGVIEW       MOSUNNY   85  73  67 S8        30.05S HX  91
MARSHALL       SUNNY     83  76  80 S3        30.08S HX  91
ATHENS         SUNNY     84  73  70 S5        30.04S HX  91
JACKSONVILLE   SUNNY     85  73  66 W7        30.09S HX  91
HENDERSON      SUNNY     85  72  66 CALM      30.07S HX  90
NACOGDOCHES    SUNNY     84  75  74 W6        30.06S HX  92
LUFKIN         SUNNY     89  74  60 VRB5      30.05F HX  98
$$

SUPPLEMENTAL OBSERVATIONS (CENTRAL)

CITY           SKY/WX    TMP DP  RH WIND       PRES   REMARKS
$$

SUPPLEMENTAL OBSERVATIONS (WEST)

CITY           SKY/WX    TMP DP  RH WIND       PRES   REMARKS
$$

SUPPLEMENTAL OBSERVATIONS (EAST)

CITY           SKY/WX    TMP DP  RH WIND       PRES   REMARKS
$$

SUPPLEMENTAL OBSERVATIONS ARE A COLLECTION OF AUTOMATED INSTRUMENTS
THAT ARE MAINTAINED BY A VARIETY OF FEDERAL AND STATE AGENCIES.
CERTAIN ELEMENTS...SUCH AS HUMIDITY VALUES AND SUSTAINED WIND
SPEEDS...MAY BE APPROXIMATED.




USA.gov is the U.S. government's official web portal to all federal, state and local government web resources and services.